WGS F9 (USA 275)

Last updated on Sun Sep 20 2026 00:02:59 GMT+0000 (Coordinated Universal Time)

1 42075U 17016A 26262.34839630 .00000000 00000+0 00000+0 0 9995 2 42075 0.0154 178.5048 0000245 311.2010 341.9933 1.00270271 34843
UTC large
Height (km)
Speed (km/s)
/
Latitude / Longitude
Inclination (degrees)
Orbital Period (minutes)
Azimuth
Elevation
Range (km)
Doppler Factor

Next 0 passes for location: London (51.5072 / 0.1276)

No passes found over London.
WGS F9 (USA 275)